Back to catalog

STARLINK-30969

AliveCommunicationsVLEO
NORAD 58438·PAYLOAD·🇺🇸 United States

Launched Nov 28, 2023 from Cape Canaveral Space Force Station

Loading…

Next Passes (next 24 hours)

TLE

FreshSource: CelesTrak SupGP

Epoch: Sep 14, 2026, 13:25 UTC

1 58438C 23183B   26257.55951389 -.00023810  00000+0 -86249-3 0  2576
2 58438  43.0009  55.0184 0001323 262.8087 293.9632 15.27586748    19

Track STARLINK-30969 in real time with AllMySat

Download on the App Store